When you browse on this site, cookies collect data to enhance your experience and personalize the content and advertising you see.
Visit our Privacy Policy to learn more. By continuing to use the site, you agree to this use of cookies and data.
  • în România
  • Lista ţărilor
  • Pe 7 zile
  • Temperatura apei
  • Hartă satelitară
  • Meteo pe hartă
  • Widget-uri
  • user-avatar
    Intrare

    Meteo pe oră la Budziejowice

    Astăzi, 18 Februarie, Luni

    Timp Temperatura Precipitaţii Vânt Presiune Umiditate
    00:00 +5°C° 0 mm 1 m/s 749 mmHg 75%
    01:00 +5°C° 0 mm 1 m/s 748 mmHg 77%
    02:00 +5°C° 0 mm 1 m/s 748 mmHg 77%
    03:00 +4°C° 0 mm 1 m/s 748 mmHg 77%
    04:00 +4°C° 0 mm 1 m/s 748 mmHg 76%
    05:00 +4°C° 0 mm 1 m/s 748 mmHg 75%
    06:00 +4°C° 0 mm 1 m/s 748 mmHg 73%
    07:00 +2°C° 0 mm 0 m/s 748 mmHg 69%
    08:00 +4°C° 0 mm 0 m/s 748 mmHg 63%
    09:00 +6°C° 0 mm 1 m/s 748 mmHg 56%
    10:00 +8°C° 0 mm 1 m/s 748 mmHg 50%
    11:00 +9°C° 0 mm 1 m/s 747 mmHg 46%
    12:00 +10°C° 0 mm 1 m/s 747 mmHg 43%
    13:00 +13°C° 0 mm 1 m/s 747 mmHg 38%
    14:00 +12°C° 0 mm 1 m/s 747 mmHg 41%
    15:00 +12°C° 0 mm 1 m/s 746 mmHg 43%
    16:00 +12°C° 0 mm 1 m/s 746 mmHg 46%
    17:00 +10°C° 0 mm 1 m/s 746 mmHg 50%
    18:00 +9°C° 0 mm 1 m/s 746 mmHg 54%
    19:00 +8°C° 0 mm 1 m/s 746 mmHg 59%
    20:00 +8°C° 0 mm 1 m/s 746 mmHg 63%
    21:00 +7°C° 0 mm 1 m/s 746 mmHg 67%
    22:00 +6°C° 0 mm 1 m/s 745 mmHg 71%
    23:00 +6°C° 0 mm 1 m/s 745 mmHg 71%

    Mâine, 19 Februarie, Marţi

    Timp Temperatura Precipitaţii Vânt Presiune Umiditate
    00:00 +6°C° 0 mm 1 m/s 745 mmHg 72%
    01:00 +5°C° 0 mm 1 m/s 745 mmHg 72%
    02:00 +5°C° 0 mm 1 m/s 745 mmHg 70%
    03:00 +4°C° 0 mm 1 m/s 745 mmHg 67%
    04:00 +4°C° 0 mm 1 m/s 745 mmHg 65%
    05:00 +4°C° 0 mm 1 m/s 744 mmHg 64%
    06:00 +4°C° 0 mm 1 m/s 744 mmHg 63%
    07:00 +3°C° 0 mm 1 m/s 744 mmHg 62%
    08:00 +4°C° 0 mm 2 m/s 744 mmHg 58%
    09:00 +6°C° 0 mm 2 m/s 744 mmHg 53%
    10:00 +8°C° 0 mm 2 m/s 744 mmHg 49%
    11:00 +9°C° 0 mm 3 m/s 743 mmHg 47%
    12:00 +11°C° 0 mm 4 m/s 743 mmHg 46%
    13:00 +12°C° 0 mm 5 m/s 743 mmHg 44%
    14:00 +10°C° 0 mm 5 m/s 742 mmHg 48%
    15:00 +10°C° 0 mm 5 m/s 742 mmHg 51%
    16:00 +10°C° 0 mm 5 m/s 742 mmHg 54%
    17:00 +8°C° 0 mm 5 m/s 742 mmHg 60%
    18:00 +7°C° 0 mm 5 m/s 742 mmHg 65%
    19:00 +6°C° 0 mm 5 m/s 742 mmHg 71%
    20:00 +5°C° 0 mm 5 m/s 742 mmHg 72%
    21:00 +5°C° 0 mm 5 m/s 743 mmHg 74%
    22:00 +3°C° 0 mm 5 m/s 743 mmHg 75%
    23:00 +3°C° 0.3 mm 5 m/s 743 mmHg 78%

    Poimâine, 20 Februarie, Miercuri

    Timp Temperatura Precipitaţii Vânt Presiune Umiditate
    00:00 +5°C° 0.3 mm 5 m/s 743 mmHg 81%
    01:00 +5°C° 0.3 mm 5 m/s 743 mmHg 83%
    02:00 +3°C° 0 mm 5 m/s 743 mmHg 86%
    03:00 +4°C° 0 mm 4 m/s 743 mmHg 89%
    04:00 +3°C° 0 mm 4 m/s 743 mmHg 92%
    05:00 +3°C° 0 mm 4 m/s 743 mmHg 91%
    06:00 +2°C° 0 mm 5 m/s 744 mmHg 90%
    07:00 +1°C° 0 mm 5 m/s 744 mmHg 89%
    08:00 +2°C° 0 mm 5 m/s 744 mmHg 84%
    09:00 +3°C° 0 mm 6 m/s 744 mmHg 79%
    10:00 +4°C° 0 mm 7 m/s 745 mmHg 74%
    11:00 +4°C° 0 mm 7 m/s 745 mmHg 70%
    12:00 +5°C° 0 mm 7 m/s 745 mmHg 66%
    13:00 +5°C° 0 mm 7 m/s 745 mmHg 63%
    14:00 +5°C° 0 mm 6 m/s 745 mmHg 64%
    15:00 +4°C° 0 mm 6 m/s 745 mmHg 66%
    16:00 +5°C° 0 mm 5 m/s 746 mmHg 67%
    17:00 +5°C° 0 mm 5 m/s 746 mmHg 69%
    18:00 +5°C° 0 mm 4 m/s 746 mmHg 70%
    19:00 +5°C° 0 mm 4 m/s 747 mmHg 72%
    20:00 +4°C° 0 mm 4 m/s 747 mmHg 73%
    21:00 +4°C° 0 mm 4 m/s 747 mmHg 75%
    22:00 +4°C° 0 mm 4 m/s 747 mmHg 77%
    23:00 +4°C° 0 mm 4 m/s 747 mmHg 77%

    21 Februarie, Joi

    Timp Temperatura Precipitaţii Vânt Presiune Umiditate
    00:00 +4°C° 0 mm 4 m/s 747 mmHg 78%
    01:00 +4°C° 0 mm 4 m/s 748 mmHg 78%
    02:00 +4°C° 0 mm 4 m/s 747 mmHg 79%
    03:00 +3°C° 0 mm 4 m/s 747 mmHg 79%
    04:00 +3°C° 0 mm 4 m/s 747 mmHg 79%
    05:00 +3°C° 0.1 mm 4 m/s 747 mmHg 79%
    06:00 +3°C° 0.1 mm 4 m/s 747 mmHg 80%
    07:00 +3°C° 0.1 mm 4 m/s 747 mmHg 80%
    08:00 +3°C° 0.2 mm 5 m/s 747 mmHg 77%
    09:00 +3°C° 0.2 mm 5 m/s 747 mmHg 74%
    10:00 +4°C° 0.2 mm 6 m/s 747 mmHg 72%
    11:00 +4°C° 0.1 mm 6 m/s 746 mmHg 73%
    12:00 +5°C° 0.1 mm 6 m/s 746 mmHg 74%
    13:00 +5°C° 0.1 mm 7 m/s 746 mmHg 75%
    14:00 +5°C° 0.7 mm 7 m/s 746 mmHg 77%
    15:00 +5°C° 0.7 mm 7 m/s 746 mmHg 80%
    16:00 +4°C° 0.7 mm 7 m/s 745 mmHg 82%
    17:00 +4°C° 0.4 mm 7 m/s 746 mmHg 84%
    18:00 +4°C° 0.4 mm 6 m/s 746 mmHg 86%
    19:00 +4°C° 0.4 mm 6 m/s 746 mmHg 88%
    20:00 +4°C° 0.2 mm 6 m/s 746 mmHg 88%
    21:00 +5°C° 0.2 mm 5 m/s 746 mmHg 89%
    22:00 +5°C° 0.2 mm 5 m/s 746 mmHg 90%
    23:00 +4°C° 0.2 mm 6 m/s 747 mmHg 89%

    22 Februarie, Vineri

    Timp Temperatura Precipitaţii Vânt Presiune Umiditate
    00:00 +4°C° 0.2 mm 6 m/s 747 mmHg 87%
    01:00 +4°C° 0.2 mm 6 m/s 747 mmHg 86%
    02:00 +4°C° 0.2 mm 7 m/s 748 mmHg 85%
    03:00 +3°C° 0.2 mm 7 m/s 748 mmHg 84%
    04:00 +3°C° 0.2 mm 7 m/s 748 mmHg 83%
    05:00 +2°C° 0 mm 6 m/s 749 mmHg 81%
    06:00 +1°C° 0 mm 6 m/s 751 mmHg 79%
    07:00 -1°C° 0 mm 5 m/s 752 mmHg 77%
    08:00 -1°C° 0 mm 5 m/s 753 mmHg 70%
    09:00 -1°C° 0 mm 5 m/s 754 mmHg 63%
    10:00 -1°C° 0 mm 4 m/s 755 mmHg 56%
    11:00 0°C° 0 mm 5 m/s 755 mmHg 53%
    12:00 0°C° 0 mm 5 m/s 755 mmHg 50%
    13:00 0°C° 0 mm 5 m/s 756 mmHg 47%
    14:00 0°C° 0 mm 5 m/s 756 mmHg 47%
    15:00 0°C° 0 mm 5 m/s 757 mmHg 47%
    16:00 0°C° 0 mm 5 m/s 757 mmHg 46%
    17:00 -1°C° 0 mm 5 m/s 758 mmHg 50%
    18:00 -2°C° 0 mm 4 m/s 759 mmHg 53%
    19:00 -3°C° 0 mm 4 m/s 759 mmHg 57%
    20:00 -3°C° 0 mm 4 m/s 760 mmHg 55%
    21:00 -4°C° 0 mm 3 m/s 760 mmHg 53%
    22:00 -4°C° 0 mm 3 m/s 761 mmHg 52%
    23:00 -4°C° 0 mm 3 m/s 761 mmHg 50%

    23 Februarie, Sâmbătă

    Timp Temperatura Precipitaţii Vânt Presiune Umiditate
    00:00 -3°C° 0 mm 2 m/s 761 mmHg 49%
    01:00 -1°C° 0 mm 1 m/s 762 mmHg 48%
    02:00 -1°C° 0 mm 1 m/s 761 mmHg 48%
    03:00 -2°C° 0 mm 1 m/s 761 mmHg 48%
    04:00 -2°C° 0 mm 1 m/s 761 mmHg 48%
    05:00 -3°C° 0 mm 0 m/s 761 mmHg 48%
    06:00 -3°C° 0 mm 0 m/s 761 mmHg 48%
    07:00 -3°C° 0 mm 0 m/s 761 mmHg 48%
    08:00 -1°C° 0 mm 1 m/s 760 mmHg 42%
    09:00 0°C° 0 mm 1 m/s 760 mmHg 36%
    10:00 -1°C° 0 mm 2 m/s 760 mmHg 30%
    11:00 +1°C° 0 mm 2 m/s 759 mmHg 29%
    12:00 +1°C° 0 mm 2 m/s 759 mmHg 28%
    13:00 +2°C° 0 mm 2 m/s 758 mmHg 27%
    14:00 +2°C° 0 mm 2 m/s 758 mmHg 29%
    15:00 +2°C° 0 mm 2 m/s 757 mmHg 31%
    16:00 +2°C° 0 mm 3 m/s 757 mmHg 33%
    17:00 +1°C° 0 mm 3 m/s 756 mmHg 35%
    18:00 +1°C° 0 mm 3 m/s 756 mmHg 38%
    19:00 +1°C° 0 mm 3 m/s 756 mmHg 41%
    20:00 +1°C° 0 mm 3 m/s 756 mmHg 46%
    21:00 +1°C° 0 mm 3 m/s 756 mmHg 52%
    22:00 +2°C° 0 mm 2 m/s 756 mmHg 57%
    23:00 +2°C° 0 mm 2 m/s 756 mmHg 63%
    Arată mai mult